Temp
-14 -14 -14 -14 -14 -14 -14 -14 -14 -14 -14 -14 -14 -14 -14 -14 -14 -14 -14 -14 -14 -14 -14 -14 -14 -14 -15 -15 -15 -15 -15 -16 -16 -16 -16 -16 -16 -16 -16 -16 -16 -16
-14 -14 -14 -14 -14 -14 -14 -14 -14 -14 -14 -14 -15 -15 -14 -14 -14 -14 -14 -14 -14 -14 -14 -14 -15 -15 -15 -15 -15 -15 -16 -16 -16 -16 -16 -16 -16 -16 -16 -16 -16 -16
-14 -14 -14 -14 -15 -15 -15 -14 -14 -15 -15 -15 -15 -15 -15 -15 -14 -14 -14 -14 -14 -14 -15 -15 -15 -15 -15 -15 -16 -16 -16 -16 -16 -16 -16 -16 -16 -16 -16 -16 -16 -16
-14 -14 -14 -15 -15 -15 -15 -15 -15 -15 -15 -15 -15 -15 -15 -15 -14 -14 -14 -14 -15 -15 -15 -15 -15 -15 -16 -16 -16 -16 -16 -16 -16 -16 -16 -16 -16 -16 -16 -16 -16 -16
-14 -14 -14 -15 -15 -15 -15 -15 -15 -15 -15 -15 -15 -15 -15 -15 -15 -15 -15 -15 -15 -15 -15 -15 -15 -16 -16 -16 -16 -16 -16 -16 -16 -16 -16 -16 -16 -16 -16 -16 -16 -16
-14 -14 -14 -15 -15 -15 -15 -15 -15 -15 -15 -15 -15 -15 -15 -15 -15 -15 -15 -15 -15 -15 -15 -15 -16 -16 -16 -16 -16 -16 -16 -16 -16 -16 -16 -16 -16 -16 -16 -16 -16 -16
-14 -14 -15 -15 -15 -15 -15 -15 -15 -15 -15 -15 -15 -15 -15 -15 -15 -15 -15 -15 -15 -15 -15 -16 -16 -16 -16 -16 -16 -16 -16 -16 -16 -16 -16 -16 -16 -17 -17 -16 -16 -17
-15 -15 -15 -15 -15 -15 -15 -15 -15 -15 -15 -15 -15 -15 -15 -15 -15 -15 -15 -15 -15 -15 -16 -16 -16 -16 -16 -16 -16 -16 -16 -16 -16 -17 -17 -17 -17 -17 -17 -17 -17 -17
-15 -15 -15 -15 -15 -15 -15 -15 -15 -15 -15 -15 -15 -15 -15 -15 -15 -15 -15 -15 -15 -16 -16 -16 -16 -16 -16 -16 -16 -16 -16 -16 -17 -17 -17 -17 -17 -17 -17 -17 -17 -17
-15 -15 -15 -15 -15 -15 -15 -15 -15 -15 -15 -15 -15 -15 -15 -15 -15 -15 -15 -16 -16 -16 -16 -16 -16 -16 -16 -16 -16 -16 -17 -17 -17 -17 -17 -17 -17 -17 -17 -17 -17 -17
-15 -15 -15 -15 -15 -15 -15 -15 -15 -15 -15 -15 -15 -15 -15 -15 -15 -15 -16 -16 -16 -16 -16 -16 -16 -16 -16 -16 -16 -17 -17 -17 -17 -17 -17 -17 -17 -17 -17 -17 -17 -17
-15 -15 -15 -15 -15 -16 -16 -16 -16 -16 -15 -15 -16 -16 -16 -16 -16 -16 -16 -16 -16 -16 -16 -16 -16 -17 -17 -17 -17 -17 -17 -17 -17 -17 -17 -17 -17 -17 -17 -17 -17 -17
-15 -16 -16 -16 -15 -16 -16 -16 -16 -16 -15 -16 -16 -16 -16 -16 -16 -16 -16 -16 -16 -16 -17 -17 -17 -17 -17 -17 -17 -17 -17 -17 -17 -17 -17 -17 -17 -17 -17 -17 -17 -17
-16 -16 -16 -16 -16 -16 -16 -16 -16 -16 -16 -16 -16 -16 -16 -16 -16 -16 -16 -16 -16 -17 -17 -17 -17 -17 -17 -17 -17 -17 -17 -17 -17 -17 -17 -17 -17 -17 -17 -17 -17 -18
-16 -16 -16 -16 -16 -16 -16 -16 -16 -16 -16 -16 -16 -16 -16 -16 -16 -16 -16 -16 -17 -17 -17 -17 -17 -17 -17 -17 -17 -18 -18 -18 -17 -17 -17 -17 -17 -17 -17 -18 -18 -18
-16 -16 -16 -16 -16 -16 -16 -16 -16 -16 -16 -16 -16 -16 -16 -16 -16 -16 -17 -17 -17 -17 -17 -17 -17 -17 -17 -18 -18 -18 -18 -18 -18 -17 -17 -17 -17 -17 -18 -18 -18 -19
-16 -16 -16 -16 -16 -16 -16 -16 -16 -16 -16 -16 -16 -16 -16 -16 -17 -17 -17 -17 -17 -17 -17 -17 -17 -18 -18 -18 -18 -18 -18 -18 -18 -18 -18 -18 -18 -18 -18 -18 -19 -19
-16 -16 -16 -16 -16 -16 -16 -16 -16 -16 -16 -16 -16 -16 -17 -17 -17 -17 -17 -17 -17 -17 -18 -18 -18 -18 -18 -18 -18 -18 -18 -18 -18 -18 -18 -18 -18 -18 -18 -19 -19 -19
-16 -16 -16 -16 -16 -16 -16 -16 -16 -16 -16 -17 -17 -17 -17 -17 -17 -17 -17 -17 -17 -18 -18 -18 -18 -18 -18 -18 -18 -18 -18 -18 -18 -18 -18 -18 -18 -19 -19 -19 -19 -20
-16 -16 -16 -16 -16 -16 -16 -16 -16 -17 -17 -17 -17 -17 -17 -17 -17 -17 -17 -18 -18 -18 -18 -18 -18 -18 -18 -18 -18 -18 -18 -18 -18 -18 -18 -19 -19 -19 -19 -19 -20 -20
-16 -16 -16 -16 -16 -16 -16 -16 -17 -17 -17 -17 -17 -17 -17 -17 -17 -18 -18 -18 -18 -18 -18 -18 -18 -18 -18 -18 -18 -18 -18 -18 -18 -19 -19 -19 -19 -19 -20 -20 -20 -20
-16 -16 -16 -16 -16 -16 -16 -17 -17 -17 -17 -17 -17 -17 -17 -18 -18 -18 -18 -18 -18 -18 -18 -18 -18 -18 -18 -18 -18 -18 -18 -18 -19 -19 -19 -19 -19 -20 -20 -20 -20 -21
-16 -16 -16 -16 -16 -16 -17 -17 -17 -17 -17 -17 -17 -18 -18 -18 -18 -18 -18 -18 -18 -18 -18 -18 -18 -18 -19 -19 -18 -19 -19 -19 -19 -19 -19 -19 -20 -20 -20 -21 -21 -21
-16 -16 -16 -16 -16 -17 -17 -17 -17 -17 -17 -17 -18 -18 -18 -18 -18 -18 -18 -18 -18 -18 -18 -18 -18 -19 -19 -19 -19 -19 -19 -19 -19 -19 -19 -20 -20 -20 -21 -21 -21 -22
-16 -16 -16 -16 -17 -17 -17 -17 -17 -17 -17 -18 -18 -18 -18 -18 -18 -18 -18 -18 -18 -18 -18 -18 -18 -19 -19 -19 -19 -19 -19 -19 -19 -20 -20 -20 -20 -21 -21 -21 -22 -22
-16 -16 -16 -17 -17 -17 -17 -17 -17 -17 -18 -18 -18 -18 -18 -18 -18 -18 -18 -18 -18 -18 -18 -18 -18 -19 -19 -19 -19 -19 -19 -20 -20 -20 -20 -20 -21 -21 -21 -22 -22 -22
Height
5814 5815 5815 5815 5815 5816 5815 5815 5816 5816 5816 5815 5814 5814 5813 5812 5811 5809 5808 5806 5804 5803 5801 5799 5797 5796 5794 5792 5789 5787 5786 5784 5781 5779 5777 5775 5773 5770 5768 5765 5763 5761
5812 5813 5813 5813 5814 5814 5814 5814 5814 5814 5813 5813 5812 5812 5811 5810 5808 5807 5805 5803 5801 5799 5798 5796 5794 5792 5790 5788 5786 5784 5782 5780 5778 5775 5773 5771 5769 5766 5764 5761 5759 5757
5810 5811 5811 5812 5812 5812 5812 5812 5812 5812 5811 5811 5810 5809 5808 5807 5805 5803 5802 5800 5798 5796 5794 5793 5791 5789 5787 5785 5783 5781 5779 5777 5774 5771 5769 5767 5765 5762 5760 5757 5755 5753
5808 5809 5810 5810 5811 5811 5811 5811 5811 5810 5810 5809 5808 5806 5805 5803 5802 5800 5798 5797 5795 5793 5791 5789 5787 5785 5783 5781 5779 5777 5775 5773 5770 5767 5765 5763 5761 5758 5756 5754 5751 5749
5807 5808 5808 5809 5809 5809 5809 5809 5808 5808 5807 5806 5805 5803 5802 5800 5799 5797 5795 5794 5792 5790 5788 5785 5783 5781 5779 5778 5776 5773 5771 5769 5766 5764 5761 5760 5757 5755 5753 5750 5747 5745
5805 5806 5806 5806 5807 5807 5807 5806 5806 5805 5804 5803 5802 5800 5799 5797 5796 5794 5792 5790 5788 5786 5784 5782 5780 5778 5776 5774 5772 5769 5767 5765 5763 5760 5758 5756 5754 5752 5749 5746 5744 5741
5803 5804 5804 5804 5805 5805 5804 5804 5803 5802 5801 5800 5799 5797 5796 5794 5793 5791 5789 5787 5785 5783 5781 5779 5777 5775 5773 5770 5768 5766 5764 5762 5760 5757 5755 5753 5750 5748 5745 5742 5740 5736
5801 5802 5802 5803 5802 5802 5802 5801 5801 5800 5798 5797 5796 5794 5793 5791 5789 5787 5785 5783 5781 5779 5777 5775 5773 5771 5769 5767 5765 5762 5760 5758 5756 5754 5751 5749 5747 5744 5741 5738 5735 5732
5800 5800 5800 5800 5800 5800 5799 5799 5798 5797 5796 5794 5793 5791 5790 5788 5786 5784 5782 5780 5778 5776 5774 5772 5770 5768 5765 5763 5761 5759 5757 5755 5753 5751 5748 5745 5743 5740 5737 5735 5732 5728
5798 5798 5798 5798 5797 5797 5796 5796 5795 5794 5792 5791 5789 5788 5786 5784 5782 5780 5778 5776 5774 5772 5770 5768 5766 5764 5762 5760 5758 5756 5754 5752 5750 5747 5745 5742 5739 5736 5733 5731 5728 5724
5795 5796 5795 5795 5795 5794 5793 5793 5791 5790 5789 5787 5786 5784 5782 5781 5779 5777 5775 5773 5771 5769 5767 5765 5763 5761 5759 5757 5755 5753 5751 5749 5746 5744 5741 5738 5735 5732 5729 5726 5723 5720
5793 5793 5792 5792 5791 5791 5790 5789 5788 5786 5785 5784 5782 5781 5779 5777 5775 5773 5771 5769 5767 5765 5763 5761 5759 5757 5755 5753 5752 5749 5747 5745 5743 5741 5738 5735 5732 5728 5725 5722 5719 5715
5790 5789 5789 5788 5788 5787 5786 5785 5784 5783 5782 5781 5779 5777 5776 5774 5772 5770 5768 5766 5764 5762 5760 5758 5756 5754 5752 5750 5748 5746 5744 5741 5739 5737 5734 5731 5728 5725 5721 5717 5714 5711
5786 5786 5786 5785 5784 5784 5783 5782 5781 5779 5778 5777 5776 5774 5772 5770 5768 5766 5764 5762 5760 5758 5756 5754 5752 5751 5749 5747 5745 5742 5740 5738 5735 5733 5731 5728 5724 5720 5717 5713 5709 5706
5783 5782 5782 5781 5781 5780 5779 5778 5777 5776 5775 5774 5772 5770 5769 5767 5765 5763 5761 5759 5757 5755 5753 5751 5749 5747 5745 5743 5741 5739 5737 5735 5732 5729 5726 5723 5720 5716 5713 5709 5705 5701
5779 5779 5778 5778 5777 5776 5775 5774 5773 5772 5771 5770 5768 5767 5765 5763 5761 5759 5757 5755 5753 5752 5750 5747 5745 5743 5741 5740 5738 5736 5734 5731 5728 5725 5722 5719 5716 5712 5709 5705 5702 5698
5775 5775 5775 5774 5773 5773 5772 5770 5769 5769 5768 5766 5765 5763 5761 5760 5758 5756 5754 5752 5750 5748 5746 5744 5742 5740 5738 5736 5734 5732 5730 5728 5725 5721 5719 5716 5712 5709 5706 5702 5698 5694
5771 5771 5771 5770 5769 5769 5768 5767 5765 5765 5764 5762 5761 5759 5758 5756 5754 5753 5751 5749 5747 5745 5743 5741 5739 5737 5735 5733 5731 5728 5726 5724 5721 5717 5715 5712 5709 5706 5702 5698 5695 5691
5767 5767 5767 5766 5765 5765 5764 5763 5761 5761 5760 5758 5757 5755 5754 5752 5751 5749 5747 5745 5743 5741 5739 5738 5736 5734 5731 5729 5727 5725 5723 5720 5717 5714 5711 5708 5705 5702 5698 5695 5691 5688
5763 5763 5762 5762 5761 5761 5760 5759 5758 5757 5756 5755 5753 5752 5750 5749 5747 5746 5744 5742 5740 5738 5736 5734 5732 5730 5728 5726 5724 5722 5719 5717 5714 5711 5708 5705 5702 5698 5695 5691 5688 5685
5759 5759 5758 5758 5757 5756 5756 5755 5754 5753 5752 5751 5749 5748 5747 5745 5744 5742 5740 5738 5736 5735 5733 5731 5729 5727 5725 5723 5721 5718 5716 5713 5710 5707 5704 5701 5698 5695 5692 5688 5685 5682
5755 5754 5754 5753 5752 5752 5751 5751 5750 5749 5748 5747 5746 5744 5743 5742 5740 5739 5737 5735 5733 5731 5729 5727 5725 5723 5722 5720 5717 5715 5713 5710 5707 5704 5701 5698 5695 5692 5689 5685 5683 5679
5751 5750 5749 5748 5748 5748 5747 5747 5746 5745 5744 5743 5742 5741 5739 5738 5736 5735 5733 5731 5730 5728 5726 5724 5722 5720 5718 5716 5714 5712 5709 5707 5704 5701 5698 5695 5692 5689 5686 5683 5680 5677
5746 5745 5745 5744 5744 5743 5743 5743 5742 5741 5740 5739 5738 5737 5736 5734 5733 5731 5730 5728 5726 5724 5722 5721 5719 5717 5715 5713 5711 5709 5706 5704 5701 5698 5695 5692 5689 5686 5684 5681 5678 5675
5742 5741 5740 5740 5740 5739 5739 5739 5738 5738 5737 5735 5734 5733 5732 5731 5729 5727 5726 5724 5722 5721 5719 5717 5715 5714 5712 5710 5708 5706 5703 5701 5698 5696 5693 5690 5687 5684 5682 5679 5676 5673
5737 5736 5736 5736 5736 5735 5735 5735 5734 5734 5733 5731 5730 5729 5728 5727 5725 5724 5722 5721 5719 5717 5715 5714 5712 5710 5708 5707 5705 5702 5700 5698 5695 5692 5689 5687 5685 5683 5680 5677 5674 5671
Wind_Speed
12 12 12 12 12 13 15 16 16 16 17 18 19 20 21 22 24 25 26 27 28 29 30 31 31 32 33 34 34 34 33 33 34 34 35 35 36 37 37 38 38 39
10 11 11 12 13 14 16 17 17 18 18 19 20 21 22 24 25 26 27 28 29 30 31 31 32 33 33 33 33 33 32 33 34 35 36 36 37 37 37 38 38 39
10 11 12 13 14 15 16 17 18 18 19 20 21 23 24 25 26 27 28 29 30 31 31 32 32 32 32 32 32 32 33 33 34 35 36 36 36 37 37 37 38 39
11 12 13 14 15 16 16 17 18 19 21 22 23 25 26 27 27 28 29 30 31 31 32 32 31 31 31 32 32 33 33 34 34 35 35 35 36 36 37 37 38 40
10 11 12 13 14 16 17 18 20 21 22 24 25 26 27 28 29 29 30 31 31 32 31 31 31 31 32 32 32 33 33 33 34 34 35 35 35 36 37 38 40 41
10 11 13 14 15 17 19 20 21 22 23 25 26 27 28 28 29 31 31 32 32 32 32 31 31 31 32 32 32 32 33 33 33 34 35 35 35 36 38 39 41 42
12 13 14 16 17 18 20 21 21 23 24 26 27 28 28 29 30 32 32 32 32 32 31 31 31 31 31 32 32 32 32 32 33 34 34 35 36 37 38 40 41 42
13 14 15 17 18 19 21 22 22 24 26 27 27 28 28 30 31 32 33 32 32 31 31 31 31 31 31 31 31 31 32 32 33 33 34 35 36 38 39 40 41 43
15 16 17 18 19 21 22 23 24 25 27 28 28 28 29 31 32 33 32 32 31 31 31 31 31 31 31 31 31 31 32 32 33 33 34 36 37 38 39 41 42 44
16 17 18 19 20 22 24 25 26 27 28 29 29 29 30 32 33 33 32 32 31 31 31 31 30 30 30 30 31 31 32 32 33 34 35 37 38 39 40 42 44 46
17 18 19 20 22 23 25 26 28 29 30 30 30 30 32 33 33 33 32 31 31 31 31 30 30 30 30 30 30 31 32 32 33 34 36 37 39 40 42 44 45 47
19 20 21 22 23 24 26 28 29 30 31 31 31 32 33 33 33 32 32 32 31 31 30 30 30 30 30 30 31 32 32 33 33 35 36 38 40 42 43 45 47 49
21 22 24 24 25 26 27 29 30 32 32 32 32 33 33 33 33 32 32 31 31 31 30 30 30 30 31 31 32 32 33 33 35 36 37 39 41 43 45 47 49 50
23 24 26 27 27 27 29 30 32 33 33 33 33 34 34 34 33 32 32 32 31 31 30 30 30 31 31 32 32 33 33 34 36 37 39 41 43 45 46 48 50 51
26 26 27 29 29 29 30 32 33 34 34 34 34 35 35 34 33 32 32 32 32 31 30 30 30 31 32 33 33 33 34 35 37 39 41 43 45 46 48 49 50 51
28 29 29 30 30 30 32 33 34 34 34 34 35 35 35 34 33 32 33 32 32 31 30 30 31 32 33 33 33 34 35 36 38 40 42 44 46 47 48 48 49 49
30 31 31 31 31 32 33 34 35 35 34 34 35 36 35 34 33 33 33 33 32 31 31 31 32 32 33 33 34 34 35 37 39 42 43 45 46 47 47 48 48 48
32 32 32 32 32 33 34 35 35 35 34 34 35 36 35 34 34 34 34 34 33 32 31 32 32 33 33 34 35 35 36 38 40 42 44 45 46 46 47 47 47 46
33 33 33 33 34 35 36 35 35 35 34 35 36 36 36 35 34 35 35 34 33 32 32 32 33 33 34 34 35 35 37 39 41 43 44 44 45 45 46 45 44 44
33 33 34 34 36 36 36 35 34 34 34 35 36 36 36 36 36 35 35 34 33 32 32 33 33 34 34 34 35 36 38 40 42 43 43 43 44 44 44 43 42 42
34 34 35 36 37 37 35 33 33 33 34 35 35 36 37 37 37 36 35 34 33 33 33 33 34 34 34 34 35 37 39 41 41 42 42 42 43 42 41 41 41 40
35 36 36 37 37 35 33 32 32 33 34 35 35 36 37 38 37 36 35 34 33 33 34 34 35 34 34 34 35 37 39 41 41 40 40 41 41 40 40 39 38 36
35 36 36 36 35 33 32 31 32 34 35 35 35 36 37 38 37 36 35 35 34 34 35 36 36 35 35 35 36 38 40 40 39 39 40 40 39 38 38 37 35 34
35 35 35 35 34 32 31 32 33 34 35 35 35 36 37 38 38 37 36 36 35 35 36 37 37 36 36 36 38 39 39 38 38 38 39 38 37 36 35 34 32 32
35 35 35 34 33 32 32 32 33 34 34 34 35 36 37 37 38 38 38 37 36 36 37 38 37 37 37 38 38 39 38 37 37 38 37 36 35 34 32 31 30 30
35 35 35 34 33 32 32 33 34 34 34 35 35 36 36 37 38 38 38 38 37 37 37 38 38 38 38 38 37 37 36 35 36 36 35 35 34 32 29 28 28 28
Wind_Direction
241 247 254 262 270 275 278 283 286 288 290 293 297 299 301 303 303 303 303 303 303 303 304 305 305 305 305 305 305 306 308 309 310 310 311 311 312 312 313 314 314 314
248 254 260 265 270 273 277 283 289 291 293 295 297 298 299 299 300 301 302 303 304 304 305 305 304 304 304 305 306 308 309 310 310 311 311 312 313 314 315 315 315 314
258 262 267 268 270 272 276 282 286 288 291 293 295 297 298 299 301 303 304 304 305 304 303 303 303 303 305 306 308 310 310 311 311 311 312 314 314 315 315 315 315 314
262 265 267 268 270 272 276 280 284 288 293 296 298 300 302 303 304 304 304 304 303 302 302 302 304 305 307 308 309 310 310 311 312 312 313 315 315 315 315 315 315 314
264 269 272 275 278 280 283 286 291 296 299 301 302 303 303 303 304 303 303 302 302 302 303 304 306 307 308 308 309 310 311 312 313 313 314 315 315 315 315 315 315 314
277 282 283 285 286 287 289 293 298 301 303 303 302 302 302 302 303 303 303 303 303 303 304 305 306 307 307 308 309 310 311 312 313 314 315 315 315 315 315 315 315 315
281 285 284 286 287 289 293 297 300 302 302 302 301 301 302 302 303 304 304 304 304 304 304 305 306 307 308 309 310 311 311 312 314 314 314 314 314 314 314 315 315 315
277 280 283 286 289 292 295 298 300 301 301 300 300 300 301 303 304 304 304 304 304 304 305 306 307 308 308 309 310 311 312 313 313 313 312 313 314 314 315 316 316 316
274 279 284 288 290 292 295 297 299 299 299 299 299 300 302 304 305 305 305 305 304 305 306 307 308 308 309 309 310 311 312 312 312 312 312 313 314 315 316 317 317 316
272 279 284 287 289 291 292 295 297 298 299 300 301 302 305 306 306 306 305 305 305 306 307 308 308 309 309 310 310 311 311 311 311 312 313 314 315 316 317 317 317 316
272 279 284 287 289 290 291 293 295 298 300 302 303 304 306 306 306 305 305 305 306 307 307 308 309 310 311 311 310 310 310 310 311 313 314 315 316 317 317 317 317 317
273 280 284 288 289 289 291 293 296 299 302 303 303 304 305 306 305 305 305 306 306 307 308 309 311 311 311 311 310 310 310 310 312 314 315 316 317 318 318 318 318 317
273 279 284 288 290 291 291 293 296 299 301 302 302 303 304 305 305 305 306 306 307 308 309 310 311 312 312 311 311 311 311 311 313 314 316 317 318 318 318 318 318 317
273 278 283 286 289 291 291 293 296 298 299 300 301 303 305 305 305 306 306 307 308 308 309 310 311 312 312 312 312 311 311 312 313 315 317 318 318 318 318 318 318 318
273 277 281 284 288 289 289 292 294 296 298 299 300 303 305 305 306 306 307 308 309 309 309 310 312 313 313 313 312 311 311 312 315 317 318 319 319 319 319 318 318 318
273 277 280 283 286 286 287 290 292 294 296 298 300 302 304 305 305 307 308 309 309 309 310 311 312 313 313 313 312 311 312 314 316 318 319 320 320 319 319 319 319 319
272 276 280 282 283 284 286 288 291 293 295 297 300 301 303 304 305 307 309 310 311 311 311 312 313 313 313 313 312 313 314 316 318 319 320 320 319 318 318 319 319 320
273 276 279 280 281 282 284 288 290 292 294 297 299 301 302 303 305 308 310 311 312 312 312 313 313 313 313 313 313 314 315 317 319 319 320 319 318 318 318 319 320 321
274 276 277 278 279 280 284 286 289 291 293 296 299 300 301 303 305 308 310 311 312 313 313 314 314 314 314 314 314 315 316 318 319 319 319 319 318 318 319 320 322 323
273 274 275 276 277 280 283 285 288 290 293 296 299 300 300 302 305 308 310 312 313 313 314 314 314 314 314 314 314 315 316 318 318 318 318 318 318 319 320 322 324 325
271 272 274 275 277 280 282 285 287 289 293 296 298 299 299 301 305 309 311 312 312 313 314 315 314 313 312 313 314 315 316 317 317 317 318 318 318 320 322 324 325 326
271 272 274 275 277 280 282 284 286 288 292 296 297 297 298 301 305 309 311 312 312 314 315 314 312 310 310 311 313 314 315 315 316 317 317 317 319 321 324 325 326 327
270 272 273 274 277 279 280 282 284 287 291 294 294 295 298 301 305 309 311 312 312 313 315 313 310 308 308 310 312 313 313 314 315 316 317 318 321 324 325 326 327 330
269 270 272 274 276 278 279 281 284 287 291 292 292 294 298 301 305 308 311 311 312 313 314 312 308 307 307 309 311 312 312 313 315 316 317 320 324 325 325 326 330 332
269 270 271 273 275 277 279 281 284 287 289 290 291 294 297 300 304 308 310 311 311 312 312 310 307 306 306 307 309 310 311 313 314 316 319 323 324 324 325 329 332 331
270 271 272 273 274 276 278 281 283 285 287 288 290 294 297 300 304 307 308 309 310 310 310 309 306 305 304 304 306 309 311 312 314 317 321 323 322 323 327 330 331 331